User: anonymous   Login
Location: *
(51.1248°S, 108.4023°W)
Time: 19:42:52
(UTC+00:00)
Language:

Cosmos 1943 Rocket - Orbit

View from above orbital plane
View from above orbital plane
View from above satellite
View from above satellite

Ground track
Ground track

The orbit data is extracted from the following two-line orbital elements,

1 19120U 88039B   21268.08905838 -.00000122  00000-0 -34877-4 0  9991
2 19120  71.0113 266.7154 0023720 310.8462  49.0606 14.19224600727579
Epoch (UTC): 25 September 2021 02:08:14
Eccentricity: 0.0023720
inclination: 71.0113°
perigee height: 811 km
apogee height: 845 km
right ascension of ascending node: 266.7154°
argument of perigee: 310.8462°
revolutions per day: 14.19224600
mean anomaly at epoch: 49.0606°
orbit number at epoch: 72757

The dashed part of the orbit path shows where the satellite is in the earth's shadow,  

DLR